Location: Altoona
(40.5167°N, 78.4000°W)
Time: 00:46:22
(UTC-04:00)

Cosmos 1455 Rocket - Pass Details

Date: 21 August 2017
Orbit: 604 x 630 km, 82.5° (Epoch: 23 September)

Event Time Altitude Azimuth Distance (km) Brightness Sun altitude
Exits shadow 22:37:06 60° 10° (N) 726 3.4 -26.0°
Drops below altitude 10° 22:40:46 10° 8° (N) 2,018 6.1 -26.5°
Sets 22:43:01 0° 8° (N) 2,931 7.0 -26.8°
